NOAA 16 DEB

基本信息
目录编号:
41243
目录名称:
NOAA 16 DEB
国际标识:
2000-055ET
轨道中心:
EARTH
物体状态:
在轨
发射日期:
2000-09-21 UTC
轨道信息
数据来源: 国际轨道数据
星历时间: 2026-09-04T08:28:47+0800
半长轴: 7173.902km
偏心率: 0.0005295
轨道倾角: 98.724°
近地点辐角: 165.972°
升交点赤经: 330.613°
平近点角: 194.161°
近地点: 791.966km
远地点: 799.564km
周期: 100.784分钟
每日圈数: 14.287942
详细信息
发射场:
AFWTR
轨道高度:
LEO
数据来源:
AOE Integration Group
参考系:
TEME
时间系统:
UTC
历元类型:
SGP4
2D轨道图
3D轨道图
轨道高度分析图
轨道倾角分析图
轨道综合分析图
查看轨道综合分析图